Time,TemperatureF,DewpointF,PressureIn,WindDirection,WindDirectionDegrees,WindSpeedMPH,WindSpeedGustMPH,Humidity,HourlyPrecipIn,Conditions,Clouds,dailyrainin,SoftwareType,DateUTC
2013-01-09 00:03:00,38.0,31.0,30.34,NNE,22,0.0,0.0,76,0.00,,,0.00,,2013-01-09 05:03:00,
2013-01-09 00:12:00,38.0,31.0,30.34,NNE,22,0.0,0.0,76,0.00,,,0.00,,2013-01-09 05:12:00,
2013-01-09 00:22:00,38.0,31.0,30.34,NNE,22,0.0,0.0,76,0.00,,,0.00,,2013-01-09 05:22:00,
2013-01-09 00:33:00,38.0,31.0,30.33,NNE,22,0.0,0.0,76,0.00,,,0.00,,2013-01-09 05:33:00,
2013-01-09 00:42:00,38.0,31.0,30.33,NNE,22,0.0,0.0,76,0.00,,,0.00,,2013-01-09 05:42:00,
2013-01-09 00:52:00,37.0,30.0,30.33,NNE,22,0.0,0.0,76,0.00,,,0.00,,2013-01-09 05:52:00,
2013-01-09 01:02:00,36.0,29.0,30.34,NNE,22,0.0,0.0,77,0.00,,,0.00,,2013-01-09 06:02:00,
2013-01-09 01:12:00,36.0,29.0,30.34,NNE,22,0.0,0.0,77,0.00,,,0.00,,2013-01-09 06:12:00,
2013-01-09 01:22:00,36.0,29.0,30.34,NNE,22,0.0,0.0,77,0.00,,,0.00,,2013-01-09 06:22:00,
2013-01-09 01:32:00,36.0,30.0,30.34,NNE,22,0.0,0.0,78,0.00,,,0.00,,2013-01-09 06:32:00,
2013-01-09 01:42:00,36.0,30.0,30.34,NNE,22,0.0,0.0,78,0.00,,,0.00,,2013-01-09 06:42:00,
2013-01-09 01:52:00,35.0,29.0,30.33,NNE,22,0.0,0.0,78,0.00,,,0.00,,2013-01-09 06:52:00,
2013-01-09 02:02:00,35.0,29.0,30.33,NNE,22,0.0,0.0,78,0.00,,,0.00,,2013-01-09 07:02:00,
2013-01-09 02:12:00,35.0,29.0,30.33,NNE,22,0.0,0.0,78,0.00,,,0.00,,2013-01-09 07:12:00,
2013-01-09 02:22:00,35.0,29.0,30.33,NNE,22,0.0,0.0,79,0.00,,,0.00,,2013-01-09 07:22:00,
2013-01-09 02:32:00,35.0,29.0,30.32,NNE,22,0.0,0.0,79,0.00,,,0.00,,2013-01-09 07:32:00,
2013-01-09 02:42:00,35.0,29.0,30.32,NNE,22,0.0,0.0,79,0.00,,,0.00,,2013-01-09 07:42:00,
2013-01-09 02:52:00,34.0,28.0,30.33,NNE,22,0.0,0.0,80,0.00,,,0.00,,2013-01-09 07:52:00,
2013-01-09 03:02:00,34.0,28.0,30.33,NNE,22,0.0,0.0,80,0.00,,,0.00,,2013-01-09 08:02:00,
2013-01-09 03:12:00,34.0,28.0,30.33,NNE,22,0.0,0.0,80,0.00,,,0.00,,2013-01-09 08:12:00,
2013-01-09 03:22:00,34.0,28.0,30.33,NNE,22,0.0,0.0,80,0.00,,,0.00,,2013-01-09 08:22:00,
2013-01-09 03:32:00,34.0,28.0,30.34,NNE,22,0.0,0.0,80,0.00,,,0.00,,2013-01-09 08:32:00,
2013-01-09 03:42:00,34.0,28.0,30.34,NNE,22,0.0,0.0,80,0.00,,,0.00,,2013-01-09 08:42:00,
2013-01-09 03:53:00,34.0,29.0,30.34,NNE,22,0.0,0.0,81,0.00,,,0.00,,2013-01-09 08:53:00,
2013-01-09 04:02:00,33.0,28.0,30.34,NNE,22,0.0,0.0,81,0.00,,,0.00,,2013-01-09 09:02:00,
2013-01-09 04:12:00,33.0,28.0,30.34,NNE,22,0.0,0.0,81,0.00,,,0.00,,2013-01-09 09:12:00,
2013-01-09 04:22:00,33.0,28.0,30.34,NNE,22,0.0,0.0,82,0.00,,,0.00,,2013-01-09 09:22:00,
2013-01-09 04:32:00,33.0,28.0,30.32,North,0,0.0,0.0,82,0.00,,,0.00,,2013-01-09 09:32:00,
2013-01-09 04:42:00,33.0,28.0,30.32,North,0,0.0,0.0,82,0.00,,,0.00,,2013-01-09 09:42:00,
2013-01-09 04:53:00,33.0,28.0,30.32,North,0,0.0,0.0,82,0.00,,,0.00,,2013-01-09 09:53:00,
2013-01-09 05:02:00,33.0,28.0,30.32,North,0,0.0,0.0,82,0.00,,,0.00,,2013-01-09 10:02:00,
2013-01-09 05:12:00,33.0,28.0,30.32,North,0,0.0,0.0,82,0.00,,,0.00,,2013-01-09 10:12:00,
2013-01-09 05:22:00,33.0,28.0,30.32,North,0,0.0,0.0,82,0.00,,,0.00,,2013-01-09 10:22:00,
2013-01-09 05:32:00,33.0,28.0,30.31,North,0,0.0,0.0,83,0.00,,,0.00,,2013-01-09 10:32:00,
2013-01-09 05:42:00,33.0,28.0,30.31,North,0,0.0,0.0,83,0.00,,,0.00,,2013-01-09 10:42:00,
2013-01-09 05:52:00,33.0,28.0,30.31,North,0,0.0,0.0,83,0.00,,,0.00,,2013-01-09 10:52:00,
2013-01-09 06:02:00,33.0,28.0,30.31,North,0,0.0,0.0,83,0.00,,,0.00,,2013-01-09 11:02:00,
2013-01-09 06:12:00,33.0,28.0,30.31,North,0,0.0,0.0,83,0.00,,,0.00,,2013-01-09 11:12:00,
2013-01-09 06:22:00,33.0,28.0,30.31,North,0,0.0,0.0,83,0.00,,,0.00,,2013-01-09 11:22:00,
2013-01-09 06:33:00,33.0,28.0,30.31,North,0,0.0,0.0,83,0.00,,,0.00,,2013-01-09 11:33:00,
2013-01-09 06:42:00,33.0,28.0,30.31,North,0,0.0,0.0,83,0.00,,,0.00,,2013-01-09 11:42:00,
2013-01-09 06:52:00,33.0,28.0,30.31,North,0,0.0,0.0,83,0.00,,,0.00,,2013-01-09 11:52:00,
2013-01-09 07:03:00,33.0,28.0,30.31,North,0,0.0,0.0,83,0.00,,,0.00,,2013-01-09 12:03:00,
2013-01-09 07:12:00,33.0,28.0,30.31,North,0,0.0,0.0,83,0.00,,,0.00,,2013-01-09 12:12:00,
2013-01-09 07:23:00,33.0,28.0,30.31,North,0,0.0,0.0,83,0.00,,,0.00,,2013-01-09 12:23:00,
2013-01-09 07:33:00,33.0,29.0,30.31,North,0,0.0,0.0,84,0.00,,,0.00,,2013-01-09 12:33:00,
2013-01-09 07:43:00,33.0,29.0,30.31,North,0,0.0,0.0,84,0.00,,,0.00,,2013-01-09 12:43:00,
2013-01-09 07:52:00,33.0,29.0,30.32,North,0,0.0,0.0,84,0.00,,,0.00,,2013-01-09 12:52:00,
2013-01-09 08:03:00,33.0,29.0,30.32,North,0,0.0,0.0,84,0.00,,,0.00,,2013-01-09 13:03:00,
2013-01-09 08:12:00,33.0,29.0,30.32,North,0,0.0,0.0,84,0.00,,,0.00,,2013-01-09 13:12:00,
2013-01-09 08:23:00,33.0,29.0,30.33,North,0,0.0,0.0,84,0.00,,,0.00,,2013-01-09 13:23:00,
2013-01-09 08:33:00,34.0,30.0,30.34,North,0,0.0,0.0,85,0.00,,,0.00,,2013-01-09 13:33:00,
2013-01-09 08:43:00,34.0,30.0,30.34,North,0,0.0,0.0,85,0.00,,,0.00,,2013-01-09 13:43:00,
2013-01-09 08:52:00,34.0,30.0,30.33,North,0,0.0,0.0,85,0.00,,,0.00,,2013-01-09 13:52:00,
2013-01-09 09:03:00,35.0,31.0,30.33,North,0,0.0,0.0,86,0.00,,,0.00,,2013-01-09 14:03:00,
2013-01-09 09:12:00,36.0,32.0,30.33,North,0,0.0,0.0,86,0.00,,,0.00,,2013-01-09 14:12:00,
2013-01-09 09:23:00,36.0,32.0,30.33,North,0,0.0,0.0,86,0.00,,,0.00,,2013-01-09 14:23:00,
2013-01-09 09:33:00,37.0,33.0,30.32,North,0,0.0,0.0,85,0.00,,,0.00,,2013-01-09 14:33:00,
2013-01-09 09:43:00,37.0,33.0,30.32,North,0,0.0,0.0,85,0.00,,,0.00,,2013-01-09 14:43:00,
2013-01-09 09:53:00,38.0,34.0,30.32,North,0,0.0,0.0,85,0.00,,,0.00,,2013-01-09 14:53:00,
2013-01-09 10:03:00,40.0,36.0,30.32,ESE,112,0.0,0.0,85,0.00,,,0.00,,2013-01-09 15:03:00,
2013-01-09 10:13:00,40.0,36.0,30.32,ESE,112,0.0,0.0,85,0.00,,,0.00,,2013-01-09 15:13:00,
2013-01-09 10:23:00,41.0,37.0,30.32,WSW,247,0.0,0.0,84,0.00,,,0.00,,2013-01-09 15:23:00,
2013-01-09 10:33:00,42.0,37.0,30.33,SSE,157,0.0,0.0,82,0.00,,,0.00,,2013-01-09 15:33:00,
2013-01-09 10:42:00,42.0,37.0,30.33,SSE,157,0.0,0.0,82,0.00,,,0.00,,2013-01-09 15:42:00,
2013-01-09 10:53:00,42.0,37.0,30.32,South,180,0.0,0.0,81,0.00,,,0.00,,2013-01-09 15:53:00,
2013-01-09 11:03:00,43.0,38.0,30.32,ESE,112,0.0,0.0,81,0.00,,,0.00,,2013-01-09 16:03:00,
2013-01-09 11:12:00,43.0,38.0,30.32,ESE,112,0.0,0.0,81,0.00,,,0.00,,2013-01-09 16:12:00,
2013-01-09 11:23:00,44.0,38.0,30.31,SE,135,0.0,0.0,80,0.00,,,0.00,,2013-01-09 16:23:00,
2013-01-09 11:33:00,45.0,39.0,30.29,SE,135,0.0,0.0,79,0.00,,,0.00,,2013-01-09 16:33:00,
2013-01-09 11:43:00,45.0,39.0,30.29,SE,135,0.0,0.0,79,0.00,,,0.00,,2013-01-09 16:43:00,
2013-01-09 11:52:00,46.0,40.0,30.29,SE,135,0.0,0.0,79,0.00,,,0.00,,2013-01-09 16:52:00,
2013-01-09 12:03:00,47.0,41.0,30.28,ENE,67,0.0,0.0,78,0.00,,,0.00,,2013-01-09 17:03:00,
2013-01-09 12:12:00,47.0,41.0,30.28,ENE,67,0.0,0.0,78,0.00,,,0.00,,2013-01-09 17:12:00,
2013-01-09 12:23:00,47.0,41.0,30.27,WNW,292,0.0,0.0,78,0.00,,,0.00,,2013-01-09 17:23:00,
2013-01-09 12:33:00,48.0,41.0,30.25,West,270,0.0,0.0,76,0.00,,,0.00,,2013-01-09 17:33:00,
2013-01-09 12:43:00,48.0,41.0,30.25,West,270,0.0,0.0,76,0.00,,,0.00,,2013-01-09 17:43:00,
2013-01-09 12:53:00,49.0,42.0,30.26,SE,135,0.0,0.0,76,0.00,,,0.00,,2013-01-09 17:53:00,
2013-01-09 13:03:00,50.0,42.0,30.26,ESE,112,0.0,0.0,75,0.00,,,0.00,,2013-01-09 18:03:00,
2013-01-09 13:12:00,50.0,42.0,30.26,ESE,112,0.0,0.0,75,0.00,,,0.00,,2013-01-09 18:12:00,
2013-01-09 13:24:00,50.0,42.0,30.26,SE,135,0.0,0.0,75,0.00,,,0.00,,2013-01-09 18:24:00,
2013-01-09 13:33:00,50.0,42.0,30.27,SSW,202,0.0,0.0,74,0.00,,,0.00,,2013-01-09 18:33:00,
2013-01-09 13:43:00,50.0,42.0,30.27,SSW,202,0.0,0.0,74,0.00,,,0.00,,2013-01-09 18:43:00,
2013-01-09 13:53:00,50.0,42.0,30.26,West,270,0.0,0.0,74,0.00,,,0.00,,2013-01-09 18:53:00,
2013-01-09 14:03:00,50.0,42.0,30.25,SW,225,0.0,0.0,73,0.00,,,0.00,,2013-01-09 19:03:00,
2013-01-09 14:13:00,50.0,42.0,30.25,SW,225,0.0,0.0,73,0.00,,,0.00,,2013-01-09 19:13:00,
2013-01-09 14:23:00,50.0,42.0,30.26,West,270,0.0,0.0,73,0.00,,,0.00,,2013-01-09 19:23:00,
2013-01-09 14:33:00,50.0,42.0,30.26,West,270,0.0,0.0,73,0.00,,,0.00,,2013-01-09 19:33:00,
2013-01-09 14:43:00,50.0,42.0,30.26,West,270,0.0,0.0,73,0.00,,,0.00,,2013-01-09 19:43:00,
2013-01-09 14:52:00,50.0,42.0,30.26,West,270,0.0,0.0,73,0.00,,,0.00,,2013-01-09 19:52:00,
2013-01-09 15:03:00,50.0,42.0,30.24,West,270,0.0,0.0,73,0.00,,,0.00,,2013-01-09 20:03:00,
2013-01-09 15:12:00,50.0,42.0,30.24,West,270,0.0,0.0,73,0.00,,,0.00,,2013-01-09 20:12:00,
2013-01-09 15:23:00,50.0,42.0,30.24,SE,135,0.0,0.0,74,0.00,,,0.00,,2013-01-09 20:23:00,
2013-01-09 15:33:00,50.0,42.0,30.21,ESE,112,0.0,0.0,75,0.00,,,0.00,,2013-01-09 20:33:00,
2013-01-09 15:43:00,50.0,42.0,30.21,ESE,112,0.0,0.0,75,0.00,,,0.00,,2013-01-09 20:43:00,
2013-01-09 15:53:00,49.0,42.0,30.19,ESE,112,0.0,0.0,76,0.00,,,0.00,,2013-01-09 20:53:00,
2013-01-09 16:03:00,49.0,42.0,30.20,SE,135,0.0,0.0,76,0.00,,,0.00,,2013-01-09 21:03:00,
2013-01-09 16:13:00,49.0,42.0,30.20,SE,135,0.0,0.0,76,0.00,,,0.00,,2013-01-09 21:13:00,
2013-01-09 16:23:00,49.0,42.0,30.20,ENE,67,0.0,0.0,76,0.00,,,0.00,,2013-01-09 21:23:00,
2013-01-09 16:33:00,49.0,42.0,30.20,ESE,112,0.0,0.0,76,0.00,,,0.00,,2013-01-09 21:33:00,
2013-01-09 16:43:00,49.0,42.0,30.20,ESE,112,0.0,0.0,76,0.00,,,0.00,,2013-01-09 21:43:00,
2013-01-09 16:52:00,49.0,42.0,30.20,ESE,112,0.0,0.0,76,0.00,,,0.00,,2013-01-09 21:52:00,
2013-01-09 17:03:00,49.0,42.0,30.19,ESE,112,0.0,0.0,77,0.00,,,0.00,,2013-01-09 22:03:00,
2013-01-09 17:12:00,49.0,42.0,30.19,ESE,112,0.0,0.0,77,0.00,,,0.00,,2013-01-09 22:12:00,
2013-01-09 17:23:00,49.0,42.0,30.19,ESE,112,0.0,0.0,77,0.00,,,0.00,,2013-01-09 22:23:00,
2013-01-09 17:33:00,49.0,42.0,30.20,ESE,112,0.0,0.0,77,0.00,,,0.00,,2013-01-09 22:33:00,
2013-01-09 17:43:00,49.0,42.0,30.20,ESE,112,0.0,0.0,77,0.00,,,0.00,,2013-01-09 22:43:00,
2013-01-09 17:52:00,48.0,41.0,30.20,ESE,112,0.0,0.0,77,0.00,,,0.00,,2013-01-09 22:52:00,
2013-01-09 18:03:00,48.0,41.0,30.20,ESE,112,0.0,0.0,77,0.00,,,0.00,,2013-01-09 23:03:00,
2013-01-09 18:13:00,48.0,41.0,30.20,ESE,112,0.0,0.0,77,0.00,,,0.00,,2013-01-09 23:13:00,
2013-01-09 18:23:00,47.0,41.0,30.20,ESE,112,0.0,0.0,78,0.00,,,0.00,,2013-01-09 23:23:00,
2013-01-09 18:33:00,47.0,41.0,30.20,ESE,112,0.0,0.0,78,0.00,,,0.00,,2013-01-09 23:33:00,
2013-01-09 18:43:00,47.0,41.0,30.20,ESE,112,0.0,0.0,78,0.00,,,0.00,,2013-01-09 23:43:00,
2013-01-09 18:52:00,46.0,40.0,30.20,ESE,112,0.0,0.0,78,0.00,,,0.00,,2013-01-09 23:52:00,
2013-01-09 19:03:00,46.0,40.0,30.23,North,0,0.0,0.0,80,0.00,,,0.00,,2013-01-10 00:03:00,
2013-01-09 19:12:00,46.0,40.0,30.23,North,0,0.0,0.0,80,0.00,,,0.00,,2013-01-10 00:12:00,
2013-01-09 19:22:00,45.0,39.0,30.24,NNW,337,0.0,0.0,80,0.00,,,0.00,,2013-01-10 00:22:00,
2013-01-09 19:32:00,45.0,40.0,30.26,NNW,337,0.0,0.0,81,0.00,,,0.00,,2013-01-10 00:32:00,
2013-01-09 19:42:00,45.0,40.0,30.26,NNW,337,0.0,0.0,81,0.00,,,0.00,,2013-01-10 00:42:00,
2013-01-09 19:52:00,45.0,40.0,30.26,West,270,0.0,0.0,81,0.00,,,0.00,,2013-01-10 00:52:00,
2013-01-09 20:02:00,45.0,40.0,30.27,West,270,0.0,0.0,82,0.00,,,0.00,,2013-01-10 01:02:00,
2013-01-09 20:12:00,45.0,40.0,30.27,West,270,0.0,0.0,82,0.00,,,0.00,,2013-01-10 01:12:00,
2013-01-09 20:22:00,44.0,39.0,30.27,West,270,0.0,0.0,82,0.00,,,0.00,,2013-01-10 01:22:00,
2013-01-09 20:33:00,44.0,39.0,30.27,West,270,0.0,0.0,82,0.00,,,0.00,,2013-01-10 01:33:00,
2013-01-09 20:43:00,44.0,39.0,30.27,West,270,0.0,0.0,82,0.00,,,0.00,,2013-01-10 01:43:00,
2013-01-09 20:52:00,44.0,39.0,30.27,West,270,0.0,0.0,82,0.00,,,0.00,,2013-01-10 01:52:00,
2013-01-09 21:03:00,44.0,39.0,30.27,West,270,0.0,0.0,82,0.00,,,0.00,,2013-01-10 02:03:00,
2013-01-09 21:12:00,44.0,39.0,30.27,West,270,0.0,0.0,82,0.00,,,0.00,,2013-01-10 02:12:00,
2013-01-09 21:22:00,43.0,38.0,30.28,West,270,0.0,0.0,83,0.00,,,0.00,,2013-01-10 02:22:00,
2013-01-09 21:33:00,43.0,38.0,30.29,NNW,337,0.0,0.0,84,0.00,,,0.00,,2013-01-10 02:33:00,
2013-01-09 21:42:00,43.0,38.0,30.29,NNW,337,0.0,0.0,84,0.00,,,0.00,,2013-01-10 02:42:00,
2013-01-09 21:52:00,43.0,38.0,30.29,NNW,337,0.0,0.0,84,0.00,,,0.00,,2013-01-10 02:52:00,
2013-01-09 22:03:00,46.0,38.0,30.29,West,276,2.0,4.0,74,0.00,,,0.00,,2013-01-10 03:03:00,
2013-01-09 22:12:00,46.0,38.0,30.29,West,276,2.0,4.0,74,0.00,,,0.00,,2013-01-10 03:12:00,
2013-01-09 22:22:00,48.0,39.0,30.30,WNW,292,2.0,5.0,70,0.00,,,0.00,,2013-01-10 03:22:00,
2013-01-09 22:33:00,49.0,39.0,30.30,West,270,3.0,5.0,67,0.00,,,0.00,,2013-01-10 03:33:00,
2013-01-09 22:42:00,49.0,39.0,30.30,West,270,3.0,5.0,67,0.00,,,0.00,,2013-01-10 03:42:00,
2013-01-09 22:52:00,50.0,39.0,30.30,West,270,3.0,5.0,65,0.00,,,0.00,,2013-01-10 03:52:00,
2013-01-09 23:02:00,50.0,38.0,30.30,West,270,0.0,0.0,63,0.00,,,0.00,,2013-01-10 04:02:00,
2013-01-09 23:12:00,50.0,38.0,30.30,West,270,0.0,0.0,63,0.00,,,0.00,,2013-01-10 04:12:00,
2013-01-09 23:22:00,50.0,38.0,30.30,SSW,202,2.0,3.0,63,0.00,,,0.00,,2013-01-10 04:22:00,
2013-01-09 23:32:00,50.0,37.0,30.32,West,270,0.0,3.0,61,0.00,,,0.00,,2013-01-10 04:32:00,
2013-01-09 23:43:00,50.0,37.0,30.32,West,270,0.0,3.0,61,0.00,,,0.00,,2013-01-10 04:43:00,
2013-01-09 23:52:00,50.0,37.0,30.32,SSW,202,0.0,2.0,61,0.00,,,0.00,,2013-01-10 04:52:00,